2019-038Q (44400 NORAD) Tracking and Keplerian Element Data

This shows tracking and keplerian element data for the satellite.

Feedback or suggestion? Click here.




ElementValue
Catalog44400
Name2019-038Q
Epoch Orbit191
Epoch Day199.1421735
Epoch Year2019
RAAN160.8467
Inclination97.4891
Eccentricity0.002475
Argument of Perigee199.1313
Mean Anonmoly160.899
Mean Motion15.11622369
Decay Rate1.12E-06
L11 44400U 19038Q 19199.14217350 .00000112 00000-0 10393-4 0 9999
L22 44400 97.4891 160.8467 0024750 199.1313 160.8990 15.11622369 1919

Live tracking and technical data element details for 2019-038Q (NORAD 44400). 2019-038Q can be tracked NOW for your location showing map with azimuth and elevation plus other details from your city location.

Track the satellite on the map from your city or location and see movement details for azimuth, elevation, latitude, longitude, range, height, and movement on the map or in text.







IsCatalogInMostPopularTable: catalog: 44400, numindb: 2
Update: records affected: 1



GetName: 44400 2019-038Q

Hit Count: updated at: Fri, 19 Jul 2019 08:11:07 GMT